CW5624 Weather Reports


Display with metric or nautical units.
time (UTC)temp
F
wind
direction
speed
MPH
gust
MPH
rain 1hr
in
rain 24hr
in
rain mn
in
humidity
%
barometer
mb
20230129184811 51 259 1.0 6.0 0.00 0.00 0.00 66 1020.1
20230129183811 51 228 0.0 7.0 0.00 0.00 0.00 66 1020.4
20230129182811 51 241 3.0 4.0 0.00 0.00 0.00 66 1020.6
20230129181812 51 5 0.0 6.0 0.00 0.00 0.00 65 1020.7
20230129180811 51 250 2.0 5.0 0.00 0.00 0.00 64 1020.8
20230129175812 51 208 0.0 6.0 0.00 0.00 0.00 63 1021.0
20230129174812 50 242 0.0 5.0 0.00 0.00 0.00 62 1021.2
20230129173811 50 297 2.0 5.0 0.00 0.00 0.00 62 1021.5
20230129172812 50 247 1.0 5.0 0.00 0.00 0.00 62 1021.6
20230129171811 50 236 1.0 7.0 0.00 0.00 0.00 63 1021.8
20230129170812 50 232 2.0 5.0 0.00 0.00 0.00 63 1022.0
20230129165812 50 263 0.0 7.0 0.00 0.00 0.00 64 1022.3
20230129164812 50 22 1.0 6.0 0.00 0.00 0.00 66 1022.6
20230129163811 50 257 0.0 3.0 0.00 0.00 0.00 66 1022.7
20230129162811 50 30 0.0 6.0 0.00 0.00 0.00 66 1023.1
20230129161811 50 220 1.0 5.0 0.00 0.00 0.00 68 1023.1
20230129160811 49 355 1.0 5.0 0.00 0.00 0.00 71 1023.5
20230129155812 48 238 0.0 4.0 0.00 0.00 0.00 73 1024.0
20230129154814 48 26 0.0 5.0 0.00 0.00 0.00 74 1024.4
20230129153812 46 251 0.0 3.0 0.00 0.00 0.00 76 1024.6
20230129152812 44 252 2.0 3.0 0.00 0.00 0.00 77 1024.9
20230129151812 43 230 0.0 4.0 0.00 0.00 0.00 77 1024.9
20230129150812 42 243 0.0 1.0 0.00 0.00 0.00 77 1025.4
20230129145812 41 243 0.0 2.0 0.00 0.00 0.00 77 1025.5
20230129144812 40 246 0.0 0.0 0.00 0.00 0.00 77 1025.8
20230129143812 40 246 0.0 0.0 0.00 0.00 0.00 77 1026.0
20230129142812 39 246 0.0 0.0 0.00 0.00 0.00 77 1026.0
20230129141812 38 246 0.0 1.0 0.00 0.00 0.00 76 1026.0
20230129140812 38 247 0.0 2.0 0.00 0.00 0.00 75 1026.2
20230129135812 36 207 0.0 3.0 0.00 0.00 0.00 73 1026.1
20230129134812 35 192 0.0 1.0 0.00 0.00 0.00 71 1026.2
20230129133812 33 254 0.0 0.0 0.00 0.00 0.00 69 1026.5
20230129132812 32 254 0.0 0.0 0.00 0.00 0.00 70 1026.4
20230129131812 32 255 0.0 0.0 0.00 0.00 0.00 70 1026.5
20230129130812 31 255 0.0 0.0 0.00 0.00 0.00 71 1026.8
20230129125812 31 255 0.0 0.0 0.00 0.00 0.00 72 1026.8
20230129124812 31 255 0.0 0.0 0.00 0.00 0.00 72 1027.0
20230129123812 30 254 0.0 0.0 0.00 0.00 0.00 72 1027.1
20230129122812 30 254 0.0 0.0 0.00 0.00 0.00 73 1027.2
20230129121812 30 255 0.0 0.0 0.00 0.00 0.00 73 1027.3
20230129120812 30 255 0.0 0.0 0.00 0.00 0.00 74 1027.3
20230129115812 30 254 0.0 0.0 0.00 0.00 0.00 74 1027.4
20230129114812 30 255 0.0 0.0 0.00 0.00 0.00 74 1027.3
20230129113812 30 254 0.0 0.0 0.00 0.00 0.00 74 1027.2
20230129112812 30 254 0.0 0.0 0.00 0.00 0.00 75 1027.2
20230129111812 30 254 0.0 0.0 0.00 0.00 0.00 76 1027.2
20230129110812 31 255 0.0 0.0 0.00 0.00 0.00 76 1027.2
20230129105812 31 255 0.0 0.0 0.00 0.00 0.00 76 1027.0
20230129104812 31 255 0.0 0.0 0.00 0.00 0.00 76 1026.9
20230129103812 31 254 0.0 0.0 0.00 0.00 0.00 77 1027.0
20230129102812 32 254 0.0 0.0 0.00 0.00 0.00 77 1027.0
20230129101812 32 254 0.0 0.0 0.00 0.00 0.00 77 1027.2
20230129100812 32 255 0.0 0.0 0.00 0.00 0.00 77 1027.2
20230129095812 32 254 0.0 0.0 0.00 0.00 0.00 77 1027.2
20230129094812 32 255 0.0 0.0 0.00 0.00 0.00 77 1027.2
20230129093812 32 254 0.0 0.0 0.00 0.00 0.00 77 1027.3
20230129092812 32 255 0.0 0.0 0.00 0.00 0.00 77 1027.4
20230129091812 32 254 0.0 0.0 0.00 0.00 0.00 78 1027.5
20230129090812 32 254 0.0 0.0 0.00 0.00 0.00 78 1027.5
20230129085812 33 254 0.0 0.0 0.00 0.00 0.00 78 1027.2
20230129084812 33 255 0.0 0.0 0.00 0.00 0.00 78 1027.2
20230129083812 33 254 0.0 0.0 0.00 0.00 0.00 78 1027.1
20230129082812 33 254 0.0 0.0 0.00 0.00 0.00 78 1027.1
20230129081813 33 254 0.0 0.0 0.00 0.00 0.00 78 1027.1
20230129080812 33 254 0.0 0.0 0.00 0.00 0.00 78 1027.0
20230129075812 33 254 0.0 0.0 0.00 0.00 0.00 78 1027.0
20230129074813 33 254 0.0 0.0 0.00 0.00 0.00 78 1027.0
20230129073812 34 254 0.0 0.0 0.00 0.00 0.00 78 1026.9
20230129072813 34 255 0.0 0.0 0.00 0.00 0.00 78 1027.0
20230129071812 34 255 0.0 0.0 0.00 0.00 0.00 78 1026.8
20230129070812 34 254 0.0 0.0 0.00 0.00 0.00 78 1026.8
20230129065812 34 254 0.0 0.0 0.00 0.00 0.00 77 1026.8
20230129064813 34 254 0.0 0.0 0.00 0.00 0.00 77 1026.7
20230129063813 34 254 0.0 0.0 0.00 0.00 0.00 77 1026.6
20230129062812 34 255 0.0 0.0 0.00 0.00 0.00 77 1026.5
20230129061813 34 254 0.0 0.0 0.00 0.00 0.00 76 1026.4
20230129060812 34 254 0.0 0.0 0.00 0.00 0.00 76 1026.4
20230129055813 35 254 0.0 0.0 0.00 0.00 0.00 75 1026.3
20230129054813 35 254 0.0 0.0 0.00 0.00 0.00 75 1026.2
20230129053813 36 254 0.0 0.0 0.00 0.00 0.00 74 1026.1
20230129052813 36 254 0.0 0.0 0.00 0.00 0.00 72 1026.1
20230129051813 36 255 0.0 0.0 0.00 0.00 0.00 72 1026.1
20230129050813 36 255 0.0 0.0 0.00 0.00 0.00 72 1026.2
20230129045813 37 254 0.0 0.0 0.00 0.00 0.00 71 1026.3
20230129044813 37 254 0.0 0.0 0.00 0.00 0.00 71 1026.2
20230129043812 37 255 0.0 0.0 0.00 0.00 0.00 70 1026.2
20230129042813 37 255 0.0 0.0 0.00 0.00 0.00 68 1026.2
20230129041813 37 254 0.0 0.0 0.00 0.00 0.00 68 1026.1
20230129040813 38 254 0.0 0.0 0.00 0.00 0.00 68 1026.0
20230129035813 38 254 0.0 0.0 0.00 0.00 0.00 67 1026.0
20230129034813 39 254 0.0 0.0 0.00 0.00 0.00 67 1025.9
20230129033813 39 254 0.0 0.0 0.00 0.00 0.00 64 1025.8
20230129032813 39 255 0.0 0.0 0.00 0.00 0.00 64 1025.8
20230129031813 39 254 0.0 0.0 0.00 0.00 0.00 64 1025.9
20230129030813 39 254 0.0 0.0 0.00 0.00 0.00 64 1026.0
20230129025813 39 255 0.0 0.0 0.00 0.00 0.00 64 1025.9
20230129024813 39 255 0.0 0.0 0.00 0.00 0.00 64 1025.8
20230129023813 39 255 0.0 0.0 0.00 0.00 0.00 63 1025.7
20230129022813 39 254 0.0 0.0 0.00 0.00 0.00 63 1025.8
20230129021813 39 255 0.0 0.0 0.00 0.00 0.00 63 1025.6
20230129020813 39 255 0.0 0.0 0.00 0.00 0.00 62 1025.5
20230129015813 39 254 0.0 0.0 0.00 0.00 0.00 62 1025.4
20230129014813 39 254 0.0 0.0 0.00 0.00 0.00 62 1025.3
20230129013813 39 255 0.0 0.0 0.00 0.00 0.00 62 1025.3
20230129012813 39 254 0.0 0.0 0.00 0.00 0.00 62 1025.1
20230129011813 39 254 0.0 0.0 0.00 0.00 0.00 61 1025.0
20230129010813 39 255 0.0 0.0 0.00 0.00 0.00 61 1024.9
20230129005813 39 254 0.0 0.0 0.00 0.00 0.00 62 1024.8
20230129004813 40 254 0.0 0.0 0.00 0.00 0.00 61 1024.6
20230129003813 40 256 0.0 0.0 0.00 0.00 0.00 60 1024.5
20230129002813 40 256 0.0 0.0 0.00 0.00 0.00 60 1024.5
20230129001813 40 256 0.0 0.0 0.00 0.00 0.00 59 1024.3
20230129000813 40 256 0.0 0.0 0.00 0.00 0.00 59 1024.3
20230128235813 40 256 0.0 0.0 0.00 0.00 0.00 60 1024.1
20230128234813 40 256 0.0 0.0 0.00 0.00 0.00 60 1024.1
20230128233813 41 256 0.0 0.0 0.00 0.00 0.00 60 1024.0
20230128232813 41 256 0.0 0.0 0.00 0.00 0.00 58 1024.0
20230128231813 42 259 0.0 0.0 0.00 0.00 0.00 57 1023.9
20230128230813 42 259 0.0 0.0 0.00 0.00 0.00 54 1023.7
20230128225813 43 259 0.0 0.0 0.00 0.00 0.00 53 1023.6
20230128224813 44 259 0.0 0.0 0.00 0.00 0.00 52 1023.6
20230128223813 44 259 0.0 0.0 0.00 0.00 0.00 51 1023.5
20230128222813 45 259 0.0 0.0 0.00 0.00 0.00 51 1023.4
20230128221813 45 259 0.0 0.0 0.00 0.00 0.00 50 1023.0
20230128220813 46 259 0.0 1.0 0.00 0.00 0.00 49 1022.9
20230128215813 46 259 0.0 2.0 0.00 0.00 0.00 49 1022.7
20230128214813 46 276 0.0 2.0 0.00 0.00 0.00 48 1022.5
20230128213813 47 25 0.0 2.0 0.00 0.00 0.00 48 1022.4
20230128212813 47 254 0.0 2.0 0.00 0.00 0.00 47 1022.3
20230128211813 48 273 0.0 3.0 0.00 0.00 0.00 46 1022.1
20230128210813 48 298 0.0 7.0 0.00 0.00 0.00 46 1021.7
20230128205813 48 238 0.0 9.0 0.00 0.00 0.00 46 1021.6
20230128204813 48 250 2.0 5.0 0.00 0.00 0.00 47 1021.6
20230128203814 48 303 1.0 3.0 0.00 0.00 0.00 47 1021.4
20230128202814 48 240 0.0 5.0 0.00 0.00 0.00 47 1021.5
20230128201814 48 240 0.0 7.0 0.00 0.00 0.00 46 1021.4
20230128200813 48 240 0.0 8.0 0.00 0.00 0.00 46 1021.3
20230128195813 48 256 3.0 5.0 0.00 0.00 0.00 46 1021.2
20230128194814 48 244 0.0 7.0 0.00 0.00 0.00 47 1021.0
20230128193814 48 234 0.0 4.0 0.00 0.00 0.00 47 1020.8
20230128192813 48 238 5.0 5.0 0.00 0.00 0.00 45 1020.8
20230128191814 48 10 0.0 4.0 0.00 0.00 0.00 46 1020.6
20230128190814 48 255 1.0 8.0 0.00 0.00 0.00 45 1020.5
20230128185814 49 277 1.0 7.0 0.00 0.00 0.00 46 1020.6